• MPC Preparation (Info)

  • MPEC 2000-R11 : 2000 QN130

    The following Minor Planet Electronic Circular may be linked-to from your own Web pages, but must not otherwise be redistributed electronically.

    A form allowing access to any MPEC is at the bottom of this page.


    Read MPEC 2000-R10 Read MPEC 2000-R12


    M.P.E.C. 2000-R11                                Issued 2000 Sept. 2, 21:43 UT
    
         The Minor Planet Electronic Circulars contain information on unusual
             minor planets and routine data on comets.  They are published
       on behalf of Commission 20 of the International Astronomical Union by the
              Minor Planet Center, Smithsonian Astrophysical Observatory,
                              Cambridge, MA 02138, U.S.A.
    
                 Prepared using the Tamkin Foundation Computer Network
    
                 BMARSDEN@CFA.HARVARD.EDU or GWILLIAMS@CFA.HARVARD.EDU
              URL http://cfa-www.harvard.edu/iau/mpc.html  ISSN 1523-6714
    
                                      2000 QN130
    
    Observations:
         K00QD0N* C2000 08 31.31556 01 08 25.62 +00 10 02.8          18.7        704
         K00QD0N  C2000 08 31.32874 01 08 26.89 +00 10 05.6          18.5        704
         K00QD0N  C2000 08 31.34192 01 08 28.13 +00 10 07.6          18.1        704
         K00QD0N  C2000 08 31.35505 01 08 29.41 +00 10 10.1          18.6        704
         K00QD0N  C2000 08 31.36823 01 08 30.63 +00 10 11.5          18.5        704
         K00QD0N  C2000 09 01.09238 01 09 43.04 +00 12 22.7                      557
         K00QD0N  C2000 09 01.09618 01 09 43.35 +00 12 23.2                      557
         K00QD0N  C2000 09 01.10047 01 09 43.76 +00 12 23.7                      557
         K00QD0N  C2000 09 01.33287 01 10 07.65 +00 13 09.8          17.7        704
         K00QD0N  C2000 09 01.35220 01 10 09.46 +00 13 14.0                      711
         K00QD0N  C2000 09 01.35718 01 10 09.94 +00 13 14.7                      711
         K00QD0N  C2000 09 01.35922 01 10 10.16 +00 13 15.2          18.4        704
         K00QD0N  C2000 09 01.37253 01 10 11.38 +00 13 16.8          17.8        704
         K00QD0N  C2000 09 02.06186 01 11 20.51 +00 15 17.6          17.5 R      118
         K00QD0N  C2000 09 02.06361 01 11 20.70 +00 15 18.4                      118
         K00QD0N  C2000 09 02.07411 01 11 21.72 +00 15 20.0          17.9        106
         K00QD0N  C2000 09 02.09108 01 11 23.31 +00 15 23.4          18.1        106
         K00QD0N  C2000 09 02.10685 01 11 24.77 +00 15 26.4          18.2        106
         K00QD0N  C2000 09 02.32016 01 11 46.96 +00 16 06.6                      711
         K00QD0N  C2000 09 02.32481 01 11 47.41 +00 16 07.4                      711
         K00QD0N  C2000 09 02.32663 01 11 47.73 +00 16 08.5          19.2        704
         K00QD0N  C2000 09 02.32767 01 11 47.63 +00 16 08.1          18.1        704
         K00QD0N  C2000 09 02.32925 01 11 47.84 +00 16 08.2                      711
         K00QD0N  C2000 09 02.33583 01 11 48.41 +00 16 09.8          17.8        704
         K00QD0N  C2000 09 02.34010 01 11 48.85 +00 16 10.6          18.8        704
         K00QD0N  C2000 09 02.34100 01 11 48.90 +00 16 10.6          18.4        704
         K00QD0N  C2000 09 02.34869 01 11 49.56 +00 16 11.2          17.7        704
         K00QD0N  C2000 09 02.35295 01 11 50.07 +00 16 11.8          19.0        704
         K00QD0N  C2000 09 02.35422 01 11 50.18 +00 16 12.5          17.9        704
         K00QD0N  C2000 09 02.36155 01 11 50.87 +00 16 14.1          17.7        704
         K00QD0N  C2000 09 02.36688 01 11 51.42 +00 16 15.2          19.0        704
         K00QD0N  C2000 09 02.36730 01 11 51.46 +00 16 15.1          18.5        704
         K00QD0N  C2000 09 02.37562 01 11 52.21 +00 16 16.4          18.1        704
         K00QD0N  C2000 09 02.38042 01 11 52.66 +00 16 17.5          18.2        704
    
    Observer details:
    106 Crni Vrh.  Observers H. Mikuz, S. Maticic.  0.36-m f/6.7 Schmidt-Cassegrain
        + CCD.
    118 Modra.  Observers A. Galad, J. Toth.  0.6-m f/5.5 reflector + CCD.
    557 Ondrejov.  Observers P. Pravec, P. Kusnirak, U. Babiakova.  0.65-m f/3.6
        reflector + CCD.
    704 Lincoln Laboratory ETS, New Mexico.  Observers M. Blythe, F. Shelly,
        M. Bezpalko, M. Elowitz, R. Huber, L. Manguso.  Measurers J. Stuart,
        R. Sayer, J. B. Evans, H. Viggh.  1.0-m f/2.15 reflector + CCD.
    711 McDonald Observatory.  Observers P. J. Shelus, J. A. Shelus.  0.76-m
        reflector + CCD.
    
    Orbital elements:
    2000 QN130
    Epoch 2000 Aug. 24.0 TT = JDT 2451780.5                 Williams
    M 345.35576              (2000.0)            P               Q
    n   0.19785236     Peri.  299.40708     +0.71765143     -0.69504850
    a   2.9168128      Node   104.66213     +0.65347695     +0.65056282
    e   0.5735307      Incl.    2.57151     +0.24071623     +0.30606470
    P   4.98           H   16.9           G   0.15
    From 34 observations 2000 Aug. 31-Sept. 2.
    
    Ephemeris:
    2000 QN130               a,e,i = 2.92, 0.57, 3                   q = 1.2439
    Date    TT    R. A. (2000) Decl.     Delta      r     Elong.  Phase     V
    2000 08 24    00 56.23   -00 15.3    0.588    1.500   138.0    26.8    17.8
    2000 09 03    01 12.91   +00 18.2    0.502    1.442   143.3    24.7    17.3
    2000 09 13    01 29.84   +00 43.4    0.429    1.390   148.5    22.2    16.8
    2000 09 23    01 47.06   +01 04.6    0.369    1.344   153.5    19.5    16.4
    2000 10 03    02 04.45   +01 29.1    0.322    1.305   158.0    16.7    15.9
    2000 10 13    02 21.97   +02 08.9    0.288    1.275   162.1    13.9    15.5
    2000 10 23    02 39.31   +03 16.1    0.266    1.255   165.6    11.4    15.2
    2000 11 02    02 56.00   +04 58.5    0.257    1.245   168.3     9.3    15.0
    2000 11 12    03 11.86   +07 16.2    0.260    1.246   169.5     8.3    15.0
    2000 11 22    03 26.75   +09 57.0    0.275    1.258   168.2     9.2    15.2
    2000 12 02    03 40.90   +12 44.1    0.303    1.280   164.4    12.0    15.6
    2000 12 12    03 54.94   +15 22.6    0.344    1.312   159.0    15.6    16.0
    2000 12 22    04 09.26   +17 42.2    0.400    1.352   153.1    19.2    16.5
    2001 01 01    04 24.24   +19 39.5    0.469    1.400   146.8    22.6    17.1
    2001 01 11    04 40.12   +21 14.6    0.552    1.453   140.6    25.4    17.6
    2001 01 21    04 56.83   +22 29.1    0.649    1.512   134.4    27.7    18.1
    2001 01 31    05 14.33   +23 25.3    0.760    1.574   128.4    29.4    18.6
    2001 02 10    05 32.49   +24 05.2    0.883    1.639   122.4    30.5    19.0
    2001 02 20    05 51.11   +24 30.4    1.017    1.706   116.6    31.2    19.4
    2001 03 02    06 10.05   +24 42.3    1.162    1.775   110.8    31.5    19.8
    2001 03 12    06 29.17   +24 41.9    1.316    1.845   105.2    31.3    20.2
    2001 03 22    06 48.30   +24 30.2    1.479    1.915    99.6    30.9    20.5
    2001 04 01    07 07.35   +24 08.1    1.648    1.986    94.0    30.1    20.8
    2001 04 11    07 26.23   +23 36.6    1.821    2.056    88.5    29.2    21.0
    2001 04 21    07 44.83   +22 56.5    1.999    2.126    83.1    28.0    21.3
    2001 05 01    08 03.14   +22 08.5    2.179    2.196    77.6    26.6    21.5
    2001 05 11    08 21.09   +21 13.5    2.358    2.265    72.2    25.1    21.7
    2001 05 21    08 38.66   +20 12.3    2.537    2.333    66.8    23.5    21.9
    2001 05 31    08 55.84   +19 05.7    2.714    2.400    61.4    21.8    22.0
    
    Gareth V. Williams           (C) Copyright 2000 MPC           M.P.E.C. 2000-R11
    

    Read MPEC 2000-R10 Read MPEC 2000-R12


    MPEC number:

    Enter an MPEC number in one of the following forms:

    • 1997-B01 (the full form)
    • J97B01 (the packed version of the full form)
    • B01 (the abbreviated form)